Hourly Weather Barmer

Today, 8 May, Saturday

Time Temperature Precipitation Wind Pressure Humidity
00:00 +34°C° 0 mm 2 mps 736 mmHg 27%
01:00 +34°C° 0 mm 2 mps 736 mmHg 28%
02:00 +32°C° 0 mm 1 mps 736 mmHg 29%
03:00 +32°C° 0 mm 1 mps 736 mmHg 30%
04:00 +31°C° 0 mm 1 mps 736 mmHg 31%
05:00 +32°C° 0 mm 2 mps 736 mmHg 26%
06:00 +34°C° 0 mm 2 mps 736 mmHg 24%
07:00 +34°C° 0 mm 1 mps 737 mmHg 22%
08:00 +33°C° 0 mm 0 mps 737 mmHg 20%
09:00 +37°C° 0 mm 1 mps 737 mmHg 19%
10:00 +40°C° 0 mm 2 mps 737 mmHg 17%
11:00 +41°C° 0 mm 2 mps 737 mmHg 15%
12:00 +42°C° 0 mm 2 mps 736 mmHg 13%
13:00 +43°C° 0 mm 1 mps 736 mmHg 12%
14:00 +43°C° 0 mm 1 mps 735 mmHg 10%
15:00 +43°C° 0 mm 2 mps 734 mmHg 11%
16:00 +43°C° 0 mm 2 mps 734 mmHg 11%
17:00 +44°C° 0 mm 3 mps 733 mmHg 11%
18:00 +42°C° 0 mm 4 mps 734 mmHg 15%
19:00 +40°C° 0 mm 5 mps 734 mmHg 18%
20:00 +39°C° 0 mm 5 mps 734 mmHg 22%
21:00 +38°C° 0 mm 6 mps 734 mmHg 24%
22:00 +36°C° 0 mm 7 mps 735 mmHg 27%
23:00 +35°C° 0 mm 7 mps 735 mmHg 29%

Tomorrow, 9 May, Sunday

Time Temperature Precipitation Wind Pressure Humidity
00:00 +35°C° 0 mm 6 mps 734 mmHg 30%
01:00 +34°C° 0 mm 4 mps 734 mmHg 30%
02:00 +33°C° 0 mm 3 mps 733 mmHg 31%
03:00 +33°C° 0 mm 3 mps 734 mmHg 31%
04:00 +33°C° 0 mm 3 mps 734 mmHg 32%
05:00 +31°C° 0 mm 3 mps 734 mmHg 32%
06:00 +32°C° 0 mm 2 mps 734 mmHg 30%
07:00 +35°C° 0 mm 2 mps 735 mmHg 28%
08:00 +36°C° 0 mm 2 mps 736 mmHg 26%
09:00 +37°C° 0 mm 2 mps 736 mmHg 23%
10:00 +39°C° 0 mm 1 mps 735 mmHg 21%
11:00 +40°C° 0 mm 1 mps 735 mmHg 18%
12:00 +41°C° 0 mm 2 mps 735 mmHg 17%
13:00 +42°C° 0 mm 2 mps 734 mmHg 16%
14:00 +44°C° 0 mm 3 mps 733 mmHg 14%
15:00 +44°C° 0 mm 4 mps 733 mmHg 14%
16:00 +44°C° 0 mm 4 mps 732 mmHg 14%
17:00 +45°C° 0 mm 5 mps 732 mmHg 15%
18:00 +42°C° 0.1 mm 4 mps 733 mmHg 17%
19:00 +40°C° 0.1 mm 4 mps 733 mmHg 20%
20:00 +37°C° 0.1 mm 4 mps 734 mmHg 23%
21:00 +36°C° 0.1 mm 3 mps 734 mmHg 26%
22:00 +35°C° 0.1 mm 2 mps 734 mmHg 28%
23:00 +33°C° 0.1 mm 1 mps 734 mmHg 30%

Day after tomorrow, 10 May, Monday

Time Temperature Precipitation Wind Pressure Humidity
00:00 +34°C° 0 mm 3 mps 734 mmHg 32%
01:00 +34°C° 0 mm 5 mps 733 mmHg 35%
02:00 +33°C° 0 mm 7 mps 733 mmHg 37%
03:00 +32°C° 0 mm 6 mps 733 mmHg 42%
04:00 +30°C° 0 mm 6 mps 733 mmHg 47%
05:00 +30°C° 0 mm 6 mps 733 mmHg 52%
06:00 +30°C° 0 mm 5 mps 733 mmHg 49%
07:00 +32°C° 0 mm 4 mps 734 mmHg 46%
08:00 +33°C° 0 mm 4 mps 734 mmHg 43%
09:00 +35°C° 0 mm 4 mps 734 mmHg 37%
10:00 +37°C° 0 mm 5 mps 734 mmHg 30%
11:00 +41°C° 0 mm 6 mps 735 mmHg 23%
12:00 +42°C° 0 mm 6 mps 734 mmHg 21%
13:00 +44°C° 0 mm 6 mps 733 mmHg 18%
14:00 +45°C° 0 mm 6 mps 733 mmHg 16%
15:00 +45°C° 0 mm 6 mps 732 mmHg 16%
16:00 +45°C° 0 mm 6 mps 731 mmHg 16%
17:00 +45°C° 0 mm 6 mps 731 mmHg 16%
18:00 +43°C° 0.1 mm 7 mps 731 mmHg 19%
19:00 +40°C° 0.1 mm 8 mps 732 mmHg 23%
20:00 +39°C° 0.1 mm 9 mps 732 mmHg 27%
21:00 +38°C° 0 mm 8 mps 733 mmHg 33%
22:00 +35°C° 0 mm 8 mps 733 mmHg 39%
23:00 +34°C° 0 mm 7 mps 733 mmHg 45%

11 May, Tuesday

Time Temperature Precipitation Wind Pressure Humidity
00:00 +33°C° 0.1 mm 7 mps 733 mmHg 47%
01:00 +33°C° 0.1 mm 7 mps 733 mmHg 49%
02:00 +32°C° 0.1 mm 6 mps 732 mmHg 50%
03:00 +30°C° 0 mm 6 mps 732 mmHg 55%
04:00 +29°C° 0 mm 6 mps 732 mmHg 60%
05:00 +28°C° 0 mm 6 mps 732 mmHg 65%
06:00 +29°C° 0 mm 7 mps 733 mmHg 61%
07:00 +30°C° 0 mm 7 mps 733 mmHg 57%
08:00 +32°C° 0 mm 8 mps 734 mmHg 53%
09:00 +34°C° 0 mm 8 mps 734 mmHg 45%
10:00 +38°C° 0 mm 8 mps 734 mmHg 37%
11:00 +40°C° 0 mm 8 mps 734 mmHg 29%
12:00 +41°C° 0 mm 8 mps 733 mmHg 26%
13:00 +43°C° 0 mm 8 mps 732 mmHg 24%
14:00 +45°C° 0 mm 8 mps 732 mmHg 21%
15:00 +44°C° 0 mm 8 mps 731 mmHg 21%
16:00 +44°C° 0 mm 9 mps 731 mmHg 21%
17:00 +43°C° 0 mm 9 mps 730 mmHg 21%
18:00 +42°C° 0.1 mm 9 mps 730 mmHg 27%
19:00 +39°C° 0.1 mm 10 mps 731 mmHg 32%
20:00 +37°C° 0.1 mm 10 mps 731 mmHg 37%
21:00 +36°C° 0 mm 10 mps 731 mmHg 41%
22:00 +34°C° 0 mm 10 mps 732 mmHg 44%
23:00 +33°C° 0 mm 10 mps 732 mmHg 47%

12 May, Wednesday

Time Temperature Precipitation Wind Pressure Humidity
00:00 +32°C° 0 mm 10 mps 731 mmHg 51%
01:00 +32°C° 0 mm 9 mps 731 mmHg 54%
02:00 +31°C° 0 mm 9 mps 731 mmHg 57%
03:00 +31°C° 0 mm 8 mps 731 mmHg 62%
04:00 +29°C° 0 mm 7 mps 731 mmHg 67%
05:00 +29°C° 0 mm 6 mps 731 mmHg 72%
06:00 +29°C° 0 mm 7 mps 732 mmHg 68%
07:00 +31°C° 0 mm 8 mps 732 mmHg 65%
08:00 +32°C° 0 mm 8 mps 732 mmHg 62%
09:00 +34°C° 0 mm 8 mps 732 mmHg 52%
10:00 +37°C° 0 mm 8 mps 732 mmHg 43%
11:00 +39°C° 0 mm 8 mps 732 mmHg 33%
12:00 +41°C° 0 mm 8 mps 731 mmHg 28%
13:00 +44°C° 0 mm 8 mps 730 mmHg 22%
14:00 +46°C° 0 mm 8 mps 730 mmHg 17%
15:00 +46°C° 0 mm 8 mps 729 mmHg 14%
16:00 +46°C° 0 mm 8 mps 728 mmHg 12%
17:00 +47°C° 0 mm 9 mps 728 mmHg 10%
18:00 +44°C° 0 mm 9 mps 728 mmHg 12%
19:00 +42°C° 0 mm 10 mps 728 mmHg 15%
20:00 +39°C° 0 mm 11 mps 729 mmHg 17%
21:00 +37°C° 0 mm 10 mps 729 mmHg 21%
22:00 +36°C° 0 mm 10 mps 729 mmHg 25%
23:00 +33°C° 0 mm 10 mps 730 mmHg 29%

13 May, Thursday

Time Temperature Precipitation Wind Pressure Humidity
00:00 +32°C° 0 mm 9 mps 730 mmHg 34%
01:00 +31°C° 0 mm 9 mps 729 mmHg 40%
02:00 +29°C° 0 mm 8 mps 729 mmHg 45%
03:00 +29°C° 0 mm 7 mps 730 mmHg 51%
04:00 +28°C° 0 mm 7 mps 730 mmHg 58%
05:00 +27°C° 0 mm 6 mps 730 mmHg 65%
06:00 +28°C° 0 mm 7 mps 731 mmHg 62%
07:00 +29°C° 0 mm 8 mps 731 mmHg 59%
08:00 +31°C° 0 mm 9 mps 732 mmHg 56%
09:00 +34°C° 0 mm 9 mps 732 mmHg 47%
10:00 +37°C° 0 mm 9 mps 732 mmHg 37%
11:00 +40°C° 0 mm 9 mps 732 mmHg 27%
12:00 +42°C° 0 mm 9 mps 731 mmHg 23%
13:00 +44°C° 0 mm 9 mps 731 mmHg 19%
14:00 +45°C° 0 mm 9 mps 730 mmHg 15%
15:00 +45°C° 0 mm 9 mps 730 mmHg 15%
16:00 +45°C° 0 mm 10 mps 730 mmHg 15%
17:00 +44°C° 0 mm 10 mps 729 mmHg 14%
18:00 +42°C° 0 mm 10 mps 730 mmHg 16%
19:00 +40°C° 0 mm 10 mps 730 mmHg 19%
20:00 +38°C° 0 mm 10 mps 730 mmHg 21%
21:00 +35°C° 0 mm 9 mps 731 mmHg 28%
22:00 +34°C° 0 mm 9 mps 731 mmHg 34%
23:00 +32°C° 0 mm 8 mps 732 mmHg 41%
Show more